This is the latest recevied weather packets stored in our database for station/object HF3P-11. If no packets are shown the sender has not sent any weather packets the latest 10 day(s).
| Time | Temp. | Humidity | Pressure | Rain* | Wind** | Luminosity | Snow |
|---|---|---|---|---|---|---|---|
| 1787650809 | 20.56° C | 72% | 1013.2 hPa | 0 mm | - | - | - |
| 1787650508 | 20.56° C | 73% | 1013.4 hPa | 0 mm | - | - | - |
| 1787650208 | 20.56° C | 75% | 1013.2 hPa | 0 mm | - | - | - |
| 1787649899 | 20.56° C | 75% | 1013.4 hPa | 0 mm | - | - | - |
| 1787649608 | 20.56° C | 75% | 1013.5 hPa | 0 mm | - | - | - |
| 1787649300 | 20° C | 76% | 1013.5 hPa | 0 mm | - | - | - |
| 1787649000 | 20° C | 78% | 1013.4 hPa | 0 mm | - | - | - |
| 1787648709 | 20° C | 80% | 1013.3 hPa | 0 mm | - | - | - |
| 1787648399 | 20° C | 80% | 1013.4 hPa | 0 mm | - | - | - |
| 1787648099 | 20° C | 81% | 1013.5 hPa | 0 mm | - | - | - |
| 1787647808 | 19.44° C | 81% | 1013.4 hPa | 0 mm | - | - | - |
| 1787647509 | 19.44° C | 80% | 1013.4 hPa | 0 mm | - | - | - |
| 1787647200 | 19.44° C | 82% | 1013.3 hPa | 0 mm | - | - | - |
| 1787646908 | 18.89° C | 80% | 1013.4 hPa | 0 mm | - | - | - |
| 1787646608 | 18.89° C | 80% | 1013.3 hPa | 0 mm | - | - | - |
| 1787646300 | 18.89° C | 80% | 1013.3 hPa | 0 mm | - | - | - |
| 1787645999 | 18.89° C | 80% | 1013.4 hPa | 0 mm | - | - | - |
| 1787645700 | 18.89° C | 80% | 1013.4 hPa | 0 mm | - | - | - |
| 1787645400 | 18.89° C | 81% | 1013.4 hPa | 0 mm | - | - | - |
| 1787645108 | 18.89° C | 84% | 1013.3 hPa | 0 mm | - | - | - |
| 1787644799 | 18.89° C | 84% | 1013.3 hPa | 0 mm | - | - | - |
| 1787644501 | 18.33° C | 85% | 1013.4 hPa | 0 mm | - | - | - |
| 1787644199 | 18.33° C | 84% | 1013.3 hPa | 0 mm | - | - | - |
| 1787643909 | 18.33° C | 84% | 1013.2 hPa | 0 mm | - | - | - |
| 1787643610 | 18.33° C | 85% | 1013.1 hPa | 0 mm | - | - | - |
* Rain latest hour (hover to see other rain measurements)
** Current wind speed in m/s (hover to see current wind gust speed)